Meteo Giornale » Osservazioni meteo Stati Uniti (USA) » Los Angeles

ore: 07:53 - Osservazioni Meteo Los Angeles
Lat. 33° 56' N Lon. 118° 23' W Alt. 38 metri s.l.m.

coperto_pioggia America/Los_Angeles

10 °C

Pioggia Debole

Temp. 24 Ore

10 °C

15 °C

Est

18.5 Km/h

Dew point 9 °C

Umidità 93 %

Visibilità  11 Km

Il sole sorge alle ore 06:54

Il sole tramonta alle ore 17:16

Data e Ora Cielo e Fenomeni T °C DP °C Um. % Pres. hPa Vis. km Vento km/h
Oggi h: 07:53 coperto_pioggia Pioggia Debole 10 9 93 1019 11 E 18.5
Oggi h: 06:53 coperto_pioggia Pioggia Debole 11 9 87 1018 10 E 18.5
Oggi h: 06:19 coperto_pioggia Pioggia Debole 10 9 93 1018 11 E 18.5
Oggi h: 05:53 coperto_pioggia Pioggia 11 9 87 1018 11 E 18.5
Oggi h: 04:53 coperto_pioggia Pioggia Debole 11 9 87 1018 13 E 18.5
Oggi h: 03:53 coperto_pioggia Pioggia Debole 11 9 87 1019 10 E 16.7
Oggi h: 02:53 coperto Coperto 11 9 87 1019 10 E/SE 7.4
Oggi h: 01:53 coperto_pioggia Pioggia Debole 12 9 81 1019 10 E 9.3
Oggi h: 00:53 coperto_pioggia Pioggia Debole 12 9 81 1019 10 E/SE 11.1
Ieri h: 23:53 molto_nuvoloso Molto Nuvoloso 13 9 76 1019 10 E/SE 11.1
Ieri h: 22:53 molto_nuvoloso Molto Nuvoloso 13 9 76 1020 10 S/SE 11.1
Ieri h: 21:53 molto_nuvoloso Molto Nuvoloso 13 8 71 1019 10 N 5.5
Ieri h: 20:53 molto_nuvoloso Molto Nuvoloso 13 9 76 1019 10 SO 7.4
Ieri h: 20:13 molto_nuvoloso Molto Nuvoloso 13 8 71 1019 10 O/SO 13
Ieri h: 19:53 molto_nuvoloso Molto Nuvoloso 13 9 76 1018 10 O/SO 13
Ieri h: 19:33 molto_nuvoloso Molto Nuvoloso 13 9 76 1018 10 O/SO 13
Ieri h: 18:53 molto_nuvoloso Molto Nuvoloso 13 9 76 1018 10 O/SO 20.3
Ieri h: 17:53 molto_nuvoloso Molto Nuvoloso 13 8 71 1016 10 O/SO 11.1
Ieri h: 16:53 molto_nuvoloso Molto Nuvoloso 13 8 71 1015 10 O/SO 18.5
Ieri h: 15:53 nuvoloso Nuvoloso 14 7 62 1015 10 O 25.9
Ieri h: 14:53 molto_nuvoloso Molto Nuvoloso 14 8 67 1015 10 O 29.6
Ieri h: 13:53 molto_nuvoloso Molto Nuvoloso 14 8 67 1014 10 O 33.3
Ieri h: 12:53 nuvoloso Nuvoloso 15 8 62 1014 10 O/SO 29.6
Ieri h: 11:53 nuvoloso Nuvoloso 14 7 62 1014 10 O 37
Ieri h: 10:53 nuvoloso Nuvoloso 14 8 67 1013 10 O 38.8
Ieri h: 09:53 poco_nuvoloso Poco Nuvoloso 14 7 62 1012 10 O/NO 27.8
Ieri h: 08:53 poco_nuvoloso Poco Nuvoloso 13 6 62 1011 10 N 9.3
Ieri h: 07:53 nuvoloso Nuvoloso 12 6 66 1010 10 O 16.7